Regional Weather Roundup
Issued by NWS Sterling, VA

Home | Current Version | Previous Version | Graphics & Text | Print | Product List | Glossary On
Versions: 1 2 3 4 5 6 7 8 9 10 11 12 13 14 15 16 17 18 19 20 21 22 23 24 25 26 27 28 29 30 31 32 33 34 35 36 37 38 39 40 41 42 43 44 45 46 47 48 49 50
000
ASUS41 KLWX 261210
RWRLWX

REGIONAL WEATHER ROUNDUP
NATIONAL WEATHER SERVICE BALTIMORE MD/WASHINGTON DC
800 AM EDT SUN APR 26 2015

Note: "FAIR" indicates few or no clouds below 12,000 feet
with no significant weather and/or obstructions to visibility.
 TC=TEMPERATURE CELSIUS

 * =Non NWS site. Station does not report precipitation (e.g. rain,
    snow, etc.), thunder, or fog.

DCZ001-MDZ009-015-VAZ040>042-051-053>054-261300-
WASHINGTON METRO

CITY           SKY/WX    TMP DP  RH WIND       PRES   REMARKS
WASHINGTON NAT CLOUDY    48  40  73 N7        29.70S
DULLES         CLOUDY    43  39  86 NW5       29.70S
ANDREWS AFB    CLOUDY    44  41  90 NW6       29.68R
FT BELVOIR     CLOUDY    45  40  85 NW2       29.69F
QUANTICO       CLOUDY    45  40  82 N5        29.71S
COLLEGE PARK*  CLOUDY    45  41  87 N3        29.69R
LEESBURG*      CLOUDY    45  41  87 N5        29.70F
MANASSAS*      MOSUNNY   43  43 100 N5        29.70S
GAITHERSBURG*  PTSUNNY   41  37  87 N3        29.72F

$$

MDZ006>007-011-014-261300-
BALTIMORE METRO

CITY           SKY/WX    TMP DP  RH WIND       PRES   REMARKS
BWI AIRPORT    PTSUNNY   43  38  82 CALM      29.68S
MD SCIENCE CTR   N/A     48  32  53 MISG      29.69S
MARTIN STATE   PTSUNNY   50  34  53 N3        29.70S
ANNAPOLIS      CLOUDY    46  38  73 NW8       29.68S
FORT MEADE*    CLOUDY    41  39  93 NW3       29.71R

$$

MDZ012-015-019>023-261300-
MARYLAND EASTERN SHORE

CITY           SKY/WX    TMP DP  RH WIND       PRES   REMARKS
OCEAN CITY     LGT RAIN  42  40  92 VRB5      29.67S
SALISBURY      CLOUDY    43  40  89 N5        29.67S
BAY BRIDGE AP*   N/A    N/A N/A N/A N6        29.68S
CAMBRIDGE*     CLOUDY    45  41  87 CALM      29.68R

$$

MDZ017>025-261300-
SOUTHERN MARYLAND

CITY           SKY/WX    TMP DP  RH WIND       PRES   REMARKS
PATUXENT RIVER LGT RAIN  46  43  89 N8        29.68R
ST INIGOES     LGT RAIN  46  42  86 CALM      29.67S
LEONARDTOWN*   CLOUDY    43  41  93 CALM      29.69S

$$

MDZ003>005-261300-
NORTH CENTRAL MARYLAND

CITY           SKY/WX    TMP DP  RH WIND       PRES   REMARKS
FREDERICK*     NOT AVBL
HAGERSTOWN APT MOSUNNY   44  35  70 N8        29.70S
WESTMINSTER*   PTSUNNY   43  34  70 N6        29.69S

$$

MDZ501>502-261300-
WESTERN MARYLAND

CITY           SKY/WX    TMP DP  RH WIND       PRES   REMARKS
OAKLAND*       PTSUNNY   34 N/A N/A E8        29.67R WCI  27
CUMBERLAND*    MOSUNNY   43  39  87 CALM      29.77R

$$

VAZ025>031-261300-
SHENANDOAH VALLEY

CITY           SKY/WX    TMP DP  RH WIND       PRES   REMARKS
WINCHESTER*    CLOUDY    43  37  81 CALM      29.71R HAZE
FRONT ROYAL*   CLOUDY    39  37  93 CALM      29.71R
LURAY*         CLOUDY    43  43 100 N6        29.71R
NEW MARKET*    CLOUDY    40  38  93 N3        29.71R
STAUNTON*      CLOUDY    40  38  91 N7        29.72R
WAYNESBORO*    CLOUDY    38  38  99 CALM      29.69R

$$

WVZ021-048>050-054>055-261300-
EASTERN WEST VIRGINIA PANHANDLE

CITY           SKY/WX    TMP DP  RH WIND       PRES   REMARKS
MARTINSBURG    CLOUDY    44  38  79 N7        29.72R
PETERSBURG*    CLOUDY    42  37  82 CALM      29.74R

$$

VAZ036>039-050-261300-
CENTRAL FOOTHILLS

CITY           SKY/WX    TMP DP  RH WIND       PRES   REMARKS
CHARLOTTESVILL LGT RAIN  42  39  89 N6        29.70R
CULPEPER*      PTSUNNY   45  43  93 N6        29.71R
ORANGE*        PTSUNNY   43  41  93 CALM      29.71S
GORDONSVILLE*  CLOUDY    41  39  92 CALM      29.70R
WARRENTON*     PTSUNNY   44  42  95 N5        29.70S

$$

VAZ055>057-261300-
NORTH AND CENTRAL PIEDMONT

CITY           SKY/WX    TMP DP  RH WIND       PRES   REMARKS
FREDERICKSBRG* CLOUDY    44  44 100 CALM      29.69S
STAFFORD*      CLOUDY    42  50 100 N7        29.73F

$$

NCZ024-NYZ072-PAZ021-071-VAZ022-071-261300-
OTHER REGIONAL OBSERVATIONS

CITY           SKY/WX    TMP DP  RH WIND       PRES   REMARKS
NEW YORK CITY  MOSUNNY   49  28  44 NE8       29.73R
PHILADELPHIA   CLOUDY    49  29  46 NE15      29.69R
PITTSBURGH     MOSUNNY   43  27  53 N10       29.75R
ROANOKE        CLOUDY    43  41  93 CALM      29.70R
RICHMOND       LGT RAIN  45  42  89 N6        29.68R FOG
RALEIGH        DRIZZLE   47  45  93 NE7       29.66R FOG

$$

ANZ530>537-261300-
MARINE OBSERVATIONS

STATION/POSITION TIME  TEMP    WIND        PRES
                       AIR SEA DIR/SP/G
                 (UTC) (F)     (DEG/KT/KT) (MB)
THOMAS PT LIGHT  1200   44 51  320/  7/  8 1005.9R
BALT KEY BRIDGE  1100   46     310/  6/  8 1005.0R
COVE POINT       1100   45      50/  4/  5 1005.5F
LEWISETTA        1100   48 56              1004.3R
SOLOMONS ISLAND  1100      54                N/A
PINEY POINT      1100           30/  7/  8   N/A

$$




USA.gov is the U.S. government's official web portal to all federal, state and local government web resources and services.